EW1708 Weather Reports


Display with metric or nautical units.
time (UTC)temp
F
wind
direction
speed
MPH
gust
MPH
rain 1hr
in
rain 24hr
in
rain mn
in
humidity
%
barometer
mb
20260902215001 83 123 9.0 17.0 0.00 0.00 0.00 42 1009.7
20260902213936 83 112 11.0 17.0 0.00 0.00 0.00 41 1009.8
20260902212938 84 128 8.0 17.0 0.00 0.00 0.00 41 1010.0
20260902211952 84 147 9.0 18.0 0.00 0.00 0.00 41 1010.2
20260902211007 83 130 9.0 18.0 0.00 0.00 0.00 42 1010.3
20260902210023 83 82 10.0 17.0 0.00 0.00 0.00 41 1010.3
20260902203925 83 123 9.0 18.0 0.00 0.00 0.00 41 1010.5
20260902202852 83 129 9.0 20.0 0.00 0.00 0.00 42 1010.6
20260902200812 83 107 9.0 16.0 0.00 0.00 0.00 41 1010.9
20260902194555 82 102 9.0 15.0 0.00 0.00 0.00 42 1011.1
20260902193520 83 105 9.0 14.0 0.00 0.00 0.00 42 1011.3
20260902192525 83 141 7.0 15.0 0.00 0.00 0.00 43 1011.3
20260902191506 82 107 8.0 16.0 0.00 0.00 0.00 42 1011.4
20260902190504 82 158 9.0 20.0 0.00 0.00 0.00 44 1011.6
20260902185440 82 153 9.0 20.0 0.00 0.00 0.00 45 1011.8
20260902184435 81 139 8.0 16.0 0.00 0.00 0.00 48 1011.9
20260902181215 80 126 8.0 15.0 0.00 0.00 0.00 51 1012.3
20260902175046 79 90 8.0 13.0 0.00 0.00 0.00 51 1012.7
20260902174017 79 98 7.0 15.0 0.00 0.00 0.00 52 1012.7
20260902173018 78 148 8.0 15.0 0.00 0.00 0.00 50 1012.7
20260902172008 78 162 7.0 14.0 0.00 0.00 0.00 49 1012.7
20260902171028 78 150 7.0 14.0 0.00 0.00 0.00 50 1012.8
20260902170052 77 101 7.0 13.0 0.00 0.00 0.00 51 1012.8
20260902165043 77 134 7.0 13.0 0.00 0.00 0.00 52 1013.0
20260902164009 76 148 7.0 14.0 0.00 0.00 0.00 54 1013.0
20260902161925 75 147 7.0 14.0 0.00 0.00 0.00 56 1013.1
20260902160916 75 126 8.0 14.0 0.00 0.00 0.00 55 1013.1
20260902155855 74 105 8.0 16.0 0.00 0.00 0.00 57 1013.2
20260902154901 72 98 8.0 16.0 0.00 0.00 0.00 60 1013.3
20260902153839 71 101 9.0 15.0 0.00 0.00 0.00 60 1013.3
20260902151711 69 134 7.0 14.0 0.00 0.00 0.00 67 1013.3
20260902150639 68 93 8.0 14.0 0.00 0.00 0.00 71 1013.6
20260902145618 66 107 9.0 14.0 0.00 0.00 0.00 73 1013.6
20260902144603 65 112 7.0 11.0 0.00 0.00 0.00 75 1013.7
20260902143614 64 108 7.0 12.0 0.00 0.00 0.00 76 1013.7
20260902141452 62 109 6.0 12.0 0.00 0.00 0.00 80 1013.8
20260902140457 61 113 6.0 10.0 0.00 0.00 0.00 82 1013.9
20260902135433 60 99 6.0 10.0 0.00 0.00 0.00 84 1013.8
20260902134442 59 91 7.0 10.0 0.00 0.00 0.00 85 1013.8
20260902133415 58 94 6.0 10.0 0.00 0.00 0.00 86 1013.9
20260902131242 56 98 6.0 9.0 0.00 0.00 0.00 88 1014.0
20260902130237 56 81 6.0 9.0 0.00 0.00 0.00 88 1013.9
20260902125226 55 101 6.0 9.0 0.00 0.00 0.00 88 1013.9
20260902124217 55 87 6.0 9.0 0.00 0.00 0.00 88 1013.9
20260902123216 55 86 6.0 9.0 0.00 0.00 0.00 88 1014.0
20260902122151 55 84 6.0 8.0 0.00 0.00 0.00 88 1014.0
20260902121217 55 101 6.0 10.0 0.00 0.00 0.00 88 1014.0
20260902120210 55 113 6.0 10.0 0.00 0.00 0.00 88 1014.0
20260902115233 55 96 6.0 8.0 0.00 0.00 0.00 88 1013.9
20260902114200 55 101 6.0 7.0 0.00 0.00 0.00 88 1014.0
20260902112025 55 103 5.0 8.0 0.00 0.00 0.00 89 1014.1
20260902111034 54 87 5.0 8.0 0.00 0.00 0.00 90 1014.2
20260902110028 54 88 5.0 8.0 0.00 0.00 0.00 90 1014.1
20260902105032 53 84 5.0 8.0 0.00 0.00 0.00 89 1014.2
20260902103959 53 76 5.0 6.0 0.00 0.00 0.00 89 1014.3
20260902103023 54 78 4.0 6.0 0.00 0.00 0.00 88 1014.3
20260902102018 54 86 4.0 7.0 0.00 0.00 0.00 87 1014.3
20260902095919 55 85 4.0 6.0 0.00 0.00 0.00 87 1014.3
20260902094922 55 88 3.0 5.0 0.00 0.00 0.00 86 1014.3
20260902093850 56 89 4.0 7.0 0.00 0.00 0.00 85 1014.3
20260902092830 56 84 5.0 8.0 0.00 0.00 0.00 85 1014.2
20260902091852 56 94 5.0 8.0 0.00 0.00 0.00 85 1014.2
20260902085739 56 92 3.0 7.0 0.00 0.00 0.00 85 1014.3
20260902083543 55 86 5.0 7.0 0.00 0.00 0.00 86 1014.3
20260902081442 56 86 5.0 6.0 0.00 0.00 0.00 85 1014.3
20260902080429 57 90 4.0 7.0 0.00 0.00 0.00 83 1014.4
20260902075407 57 101 4.0 7.0 0.00 0.00 0.00 83 1014.5
20260902074407 57 107 4.0 7.0 0.00 0.00 0.00 84 1014.6
20260902073421 57 103 4.0 9.0 0.00 0.00 0.00 84 1014.6
20260902072437 57 108 4.0 9.0 0.00 0.00 0.00 84 1014.7
20260902071413 58 100 4.0 7.0 0.00 0.00 0.00 84 1014.6
20260902070419 58 100 5.0 7.0 0.00 0.00 0.00 83 1014.5
20260902065416 58 95 4.0 5.0 0.00 0.00 0.00 82 1014.6
20260902064408 58 103 3.0 5.0 0.00 0.00 0.00 82 1014.7
20260902061207 58 94 3.0 6.0 0.00 0.00 0.00 83 1014.7
20260902060206 58 92 3.0 5.0 0.00 0.00 0.00 82 1014.7
20260902055223 58 93 3.0 5.0 0.00 0.00 0.00 81 1014.8
20260902054207 59 89 2.0 5.0 0.00 0.00 0.00 80 1014.8
20260902053201 59 101 3.0 6.0 0.00 0.00 0.00 79 1014.7
20260902052138 60 104 4.0 8.0 0.00 0.00 0.00 78 1014.8
20260902051203 60 102 4.0 8.0 0.00 0.00 0.00 77 1014.8
20260902050159 61 111 5.0 8.0 0.00 0.00 0.00 76 1014.8
20260902045127 61 117 5.0 10.0 0.00 0.00 0.00 75 1014.7
20260902044146 61 87 6.0 10.0 0.00 0.00 0.00 75 1014.8
20260902043135 61 83 4.0 7.0 0.00 0.00 0.00 76 1014.8
20260902042122 60 80 3.0 6.0 0.00 0.00 0.00 76 1014.6
20260902041129 61 74 3.0 6.0 0.00 0.00 0.00 76 1014.6
20260902040136 62 80 3.0 6.0 0.00 0.00 0.00 75 1014.7
20260902035144 62 78 3.0 4.0 0.00 0.00 0.00 75 1014.6
20260902033002 63 82 3.0 6.0 0.00 0.00 0.00 71 1014.5
20260902032019 63 80 2.0 5.0 0.00 0.00 0.00 74 1014.6
20260902031010 63 77 3.0 6.0 0.00 0.00 0.00 74 1014.7
20260902025959 64 78 4.0 6.0 0.00 0.00 0.00 73 1014.7
20260902024955 65 76 3.0 4.0 0.00 0.00 0.00 70 1014.6
20260902023957 66 76 2.0 4.0 0.00 0.00 0.00 69 1014.6
20260902021841 68 78 2.0 4.0 0.00 0.00 0.00 65 1014.3
20260902020856 69 120 1.0 4.0 0.00 0.00 0.00 60 1014.4
20260902015842 69 129 2.0 5.0 0.00 0.00 0.00 61 1014.3
20260902014850 69 144 2.0 5.0 0.00 0.00 0.00 58 1014.2
20260902013822 70 119 2.0 4.0 0.00 0.00 0.00 60 1014.3
20260902011643 72 109 1.0 2.0 0.00 0.00 0.00 54 1014.3
20260902005428 72 103 1.0 2.0 0.00 0.00 0.00 52 1014.5
20260902004432 73 96 1.0 2.0 0.00 0.00 0.00 52 1014.5
20260902003422 73 80 0.0 2.0 0.00 0.00 0.00 49 1014.6
20260902002430 74 71 0.0 0.0 0.00 0.00 0.00 48 1014.6
20260902001443 74 71 0.0 0.0 0.00 0.00 0.00 46 1014.6
20260902000504 75 71 0.0 0.0 0.00 0.00 0.00 46 1014.5
20260901235429 76 71 0.0 0.0 0.00 0.00 0.00 44 1014.5
20260901234419 76 71 0.0 0.0 0.00 0.00 0.00 44 1014.6
20260901233436 77 71 0.0 0.0 0.00 0.00 0.00 44 1014.7
20260901232413 76 306 0.0 0.0 0.00 0.00 0.00 40 1014.7
20260901231428 77 306 0.0 0.0 0.00 0.00 0.00 41 1014.9
20260901230403 77 306 0.0 0.0 0.00 0.00 0.00 40 1014.9
20260901225349 77 306 0.0 0.0 0.00 0.00 0.00 41 1014.9
20260901224408 77 306 2.0 4.0 0.00 0.00 0.00 38 1015.0
20260901223348 77 284 2.0 5.0 0.00 0.00 0.00 35 1014.9
20260901222400 78 311 2.0 4.0 0.00 0.00 0.00 35 1015.0
20260901221326 79 296 0.0 2.0 0.00 0.00 0.00 35 1015.0
20260901215226 78 288 0.0 4.0 0.00 0.00 0.00 42 1015.3